Back to catalog

CZ-6A DEB

AlivePO
NORAD 60651·DEBRIS·🇨🇳 China

Launched Aug 6, 2024 from Taiyuan Satellite Launch Center

Loading…

Next Passes (next 24 hours)

TLE

FreshSource: Space-Track

Epoch: Sep 14, 2026, 09:53 UTC

1 60651U 24140BC  26257.41195072  .00000242  00000-0  62666-4 0  9998
2 60651  88.8833 250.2630 0077054 357.5187   2.5623 14.44807317110701

Track CZ-6A DEB in real time with AllMySat

Download on the App Store